Weather History for El Centro, CA

Change the Weather History Date:

Wednesday, December 12, 2012

  Actual Average Record
Temperature  
Mean Temperature 56 °F -  
Max Temperature 73 °F 67 °F 86 °F (2010)
Min Temperature 39 °F 43 °F 36 °F (2007)
Degree Days  
Heating Degree Days 9    
Growing Degree Days 6 (Base 50)    
Moisture  
Dew Point 38 °F    
Average Humidity 50    
Maximum Humidity 68    
Minimum Humidity 35    
Precipitation  
Precipitation 0.00 in - - ()
Sea Level Pressure  
Sea Level Pressure 29.92 in    
Wind  
Wind Speed 4 mph (SSE)    
Max Wind Speed 15 mph    
Max Gust Speed 21 mph    
Visibility 10 miles    
Events      
Averages and records for this station are not official NWS values.
T = Trace of Precipitation, MM = Missing Value Source: NWS Daily Summary

Daily Weather History Graph

Daily Weather History Graph

Search for Another Location

Airport:

Trip Planner

Search our weather history database for the weather conditions in past years. The results will help you decide how hot, cold, wet, or windy it might be!

Date:

Astronomy

Dec. 12, 2012 Rise Set
Actual Time 6:36 AM PST 4:37 PM PST
Civil Twilight 6:08 AM PST 5:04 PM PST
Nautical Twilight 5:38 AM PST 5:35 PM PST
Astronomical Twilight 5:08 AM PST 6:05 PM PST
Moon 5:46 AM PST (12/12) 4:17 PM PST (12/12)
Length of Visible Light 10h 55m
Length of Day
10h 01m
Waning Crescent, 0% of the Moon is Illuminated
Dec 12
Waning Crescent
Dec 13
New
Dec 19
First Quarter
Dec 28
Full
Jan 4
Last Quarter

Hourly Weather History & Observations

Time (PST) Temp. Windchill Dew Point Humidity Pressure Visibility Wind Dir Wind Speed Gust Speed Precip Events Conditions
12:56 AM 44.1 °F 40.8 °F 34.0 °F 68% 29.97 in 10.0 mi ESE 5.8 mph - N/A   Clear
1:56 AM 41.0 °F - 30.0 °F 65% 29.97 in - Calm Calm - N/A   Clear
2:56 AM 45.0 °F 41.2 °F 33.1 °F 63% 29.95 in 10.0 mi SE 6.9 mph - N/A   Clear
3:56 AM 43.0 °F - 30.9 °F 62% 29.94 in 10.0 mi Calm Calm - N/A   Clear
4:56 AM 43.0 °F - 32.0 °F 65% 29.94 in 10.0 mi Calm Calm - N/A   Clear
5:56 AM 39.9 °F 37.8 °F 28.9 °F 65% 29.96 in 10.0 mi NNE 3.5 mph - N/A   Clear
6:56 AM 39.9 °F - 28.9 °F 65% 29.97 in 10.0 mi Calm Calm - N/A   Mostly Cloudy
7:56 AM 48.9 °F - 32.0 °F 52% 29.98 in 10.0 mi Calm Calm - N/A   Mostly Cloudy
8:56 AM 55.9 °F - 35.1 °F 45% 29.99 in 10.0 mi Calm Calm - N/A   Mostly Cloudy
9:56 AM 61.0 °F - 37.0 °F 41% 29.99 in 10.0 mi East 3.5 mph - N/A   Scattered Clouds
10:56 AM 64.0 °F - 39.0 °F 40% 29.97 in 10.0 mi ESE 3.5 mph - N/A   Scattered Clouds
11:56 AM 68.0 °F - 43.0 °F 40% 29.93 in 10.0 mi Calm Calm - N/A   Scattered Clouds
12:56 PM 70.0 °F - 42.1 °F 36% 29.90 in 10.0 mi SSE 6.9 mph - N/A   Scattered Clouds
1:56 PM 72.0 °F - 46.0 °F 40% 29.87 in 10.0 mi SE 9.2 mph - N/A   Partly Cloudy
2:56 PM 73.0 °F - 46.0 °F 38% 29.85 in 10.0 mi SE 12.7 mph - N/A   Partly Cloudy
3:56 PM 71.1 °F - 42.1 °F 35% 29.85 in 10.0 mi SW 4.6 mph - N/A   Partly Cloudy
4:56 PM 66.9 °F - 43.0 °F 42% 29.85 in 10.0 mi Calm Calm - N/A   Partly Cloudy
5:56 PM 59.0 °F - 43.0 °F 55% 29.86 in 10.0 mi Calm Calm - N/A   Clear
6:56 PM 63.0 °F - 36.0 °F 37% 29.87 in 10.0 mi Calm Calm - N/A   Clear
7:56 PM 61.0 °F - 36.0 °F 39% 29.87 in 10.0 mi NNW 5.8 mph - N/A   Partly Cloudy
8:56 PM 59.0 °F - 39.9 °F 49% 29.88 in 10.0 mi West 8.1 mph - N/A   Partly Cloudy
9:56 PM 61.0 °F - 42.1 °F 50% 29.88 in 10.0 mi West 15.0 mph 20.7 mph N/A   Partly Cloudy
10:56 PM 61.0 °F - 42.1 °F 50% 29.88 in 10.0 mi WSW 12.7 mph - N/A   Clear
11:56 PM 59.0 °F - 41.0 °F 51% 29.87 in 10.0 mi West 10.4 mph - N/A   Clear